{"data":{"norad_id":64794,"epoch":"2026-09-20T13:43:36.558624Z","epoch_age_seconds":121713,"freshness":"FRESH","line1":"1 64794U 25150E   26263.57195091  .00002364  00000+0  20584-3 0  9995","line2":"2 64794  70.0030   3.2750 0003275 268.5860  91.4924 14.98337342 65702","mean_motion":14.98337342,"eccentricity":0.0003275,"inclination_deg":70.003,"raan_deg":3.275,"arg_perigee_deg":268.586,"mean_anomaly_deg":91.4924,"bstar":0.00020584,"rev_number":6570,"period_min":96.106528191967,"perigee_km":569.75700577169,"apogee_km":574.30936724385,"semimajor_km":6950.1701865078,"source":"CELESTRAK","updated_at":"2026-09-21T09:00:35.443073Z"}}